Flag for U.S.A. Weather past 2 weeks in Nashville, Tennessee, U.S.A.

Now
82 °F

Broken clouds.


Feels Like: 84 °F
Forecast: 71 / 85 °F
Wind: 8 mph from Southwest

Location: Nashville International Airport

Current Time: Aug 29, 2015 at 10:48:31 AM

Latest Report: Aug 29, 2015 at 9:53 AM


Visibility: 10 mi

Pressure: 30.13 "Hg

Humidity: 60%

Dew point: 67 °F

Location of NashvilleLocation

Historic Weather in Nashville — Graph

°F

Nashville temperature yesterday

Maximum temperature yesterday: 90 °F (at 2:53 PM)
Minimum temperature yesterday: 63 °F (at 3:53 AM)
Average temperature yesterday: 76 °F

Past Weeks' High & Low Weather Summary

 TemperatureHumidityPressure
High90 °F (Aug 23, 2:53 PM)91% (Aug 17, 4:53 AM)30.19 "Hg (Aug 17, 4:53 AM)
Low58 °F (Aug 25, 4:53 AM)28% (Aug 25, 2:53 PM)29.82 "Hg (Aug 19, 2:53 PM)
Average75 °F68%30.04 "Hg
* Reported Aug 14 9:53 AM — Aug 29 9:53 AM, Nashville, Weather by CustomWeather, © 2015

Note: Actual official high and low records may vary slightly from our data, if they occured in-between our weather recording intervals... More about our weather records

Advertising

Nashville weather history for previous 24 hours

 ConditionsComfort  
Time TempWeatherWind HumidityBarometerVisibility
9:53 AM
Sat, Aug 29
82 °FBroken clouds.8 mph60%30.13 "Hg10 mi
8:53 AM79 °FScattered clouds.8 mph67%30.12 "Hg10 mi
7:53 AM74 °FSunny.3 mph76%30.12 "Hg8 mi
6:53 AM72 °FScattered clouds.3 mph78%30.11 "Hg10 mi
5:53 AM71 °FPassing clouds.No wind81%30.10 "Hg10 mi
4:53 AM71 °FPassing clouds.No wind81%30.08 "Hg10 mi
3:53 AM71 °FPassing clouds.No wind81%30.08 "Hg10 mi
2:53 AM71 °FClear.3 mph81%30.07 "Hg10 mi
1:53 AM71 °FClear.6 mph81%30.07 "Hg10 mi
12:53 AM73 °FClear.8 mph76%30.08 "Hg10 mi
11:53 PM
Fri, Aug 28
71 °FClear.3 mph76%30.09 "Hg10 mi
10:53 PM73 °FClear.6 mph74%30.09 "Hg10 mi
9:53 PM74 °FPassing clouds.5 mph71%30.08 "Hg10 mi
8:53 PM77 °FPassing clouds.5 mph62%30.07 "Hg10 mi
7:53 PM79 °FPassing clouds.5 mph56%30.04 "Hg10 mi
6:53 PM84 °FScattered clouds.8 mph43%30.03 "Hg10 mi
5:53 PM87 °FScattered clouds.7 mph36%30.03 "Hg10 mi
4:53 PM88 °FScattered clouds.9 mph35%30.03 "Hg10 mi
3:53 PM89 °FBroken clouds.8 mph32%30.03 "Hg10 mi
2:53 PM90 °FBroken clouds.12 mph35%30.05 "Hg10 mi
1:53 PM89 °FBroken clouds.6 mph41%30.07 "Hg10 mi
12:53 PM86 °FScattered clouds.5 mph42%30.09 "Hg10 mi
11:53 AM85 °FPassing clouds.9 mph48%30.11 "Hg10 mi
10:53 AM80 °FPassing clouds.5 mph54%30.13 "Hg10 mi
Weather by CustomWeather, © 2015

See weather overviewHow to use our weather pages